Regional Weather Roundup
Issued by NWS

Home | Current Version | Previous Version | Text Only | Print | Product List | Glossary On
Versions: 1 2 3 4 5 6 7 8 9 10 11 12 13 14 15 16 17 18 19 20 21 22 23 24 25 26 27 28 29 30 31 32 33 34 35 36 37 38 39 40 41 42 43 44 45 46 47 48 49 50
000
ASUS43 KBIS 240320
RWRND

NORTH DAKOTA REGIONAL WEATHER ROUNDUP
NATIONAL WEATHER SERVICE BISMARCK ND
1000 PM CDT WED APR 23 2014

NOTE: "FAIR" INDICATES FEW OR NO CLOUDS BELOW 12,000 FEET WITH NO
SIGNIFICANT WEATHER AND/OR OBSTRUCTIONS TO VISIBILITY.


NDZ001>003-009>011-017-240400-
NORTHWEST NORTH DAKOTA

CITY           SKY/WX    TMP DP  RH WIND       PRES   REMARKS
WILLISTON      MOCLDY    47  38  71 CALM      29.62R
MINOT          CLOUDY    45  42  89 SW5       29.64R
MINOT AFB      CLOUDY    43  43 100 S5        29.63R
$$

NDZ018>021-031>035-040>046-240400-
SOUTHWEST NORTH DAKOTA

CITY           SKY/WX    TMP DP  RH WIND       PRES   REMARKS
BISMARCK       PTCLDY    47  32  56 N5        29.70R
DICKINSON      CLOUDY    44  26  49 NW7       29.67R
GARRISON         N/A     38  36  92 S3        29.66R
HETTINGER ARPT CLOUDY    41  29  62 W7        29.72R
$$

NDZ004>008-012>016-024-026-027-054-240400-
NORTHEAST NORTH DAKOTA

CITY           SKY/WX    TMP DP  RH WIND       PRES   REMARKS
GRAND FORKS    LGT RAIN  40  37  89 SE26G37   29.84S
GRND FRKS AFB  CLOUDY    39  39 100 SE18G25   29.83S
DEVILS LAKE    CLOUDY    37  34  87 SE14      29.75R
$$

NDZ022-023-025-028>030-036>039-047>053-240400-
SOUTHEAST NORTH DAKOTA

CITY           SKY/WX    TMP DP  RH WIND       PRES   REMARKS
FARGO          CLOUDY    42  38  85 SE17G28   29.81F
JAMESTOWN      CLOUDY    40  38  93 SE17      29.74R
$$




USA.gov is the U.S. government's official web portal to all federal, state and local government web resources and services.